TimeCDT,TemperatureF,Dew PointF,Humidity,Sea Level PressureIn,VisibilityMPH,Wind Direction,Wind SpeedMPH,Gust SpeedMPH,PrecipitationIn,Events,Conditions,WindDirDegrees,DateUTC
12:15 AM,32.0,28.4,87,29.99,10.0,WSW,6.9,-,N/A,,Overcast,250,2012-10-10 05:15:00
12:35 AM,32.0,28.4,87,29.99,10.0,West,5.8,-,N/A,,Overcast,260,2012-10-10 05:35:00
12:55 AM,32.0,28.4,87,29.99,10.0,WSW,5.8,-,N/A,,Overcast,250,2012-10-10 05:55:00
1:15 AM,32.0,30.2,93,29.99,10.0,WSW,5.8,-,N/A,,Overcast,250,2012-10-10 06:15:00
1:35 AM,32.0,30.2,93,29.98,10.0,West,5.8,-,N/A,,Overcast,260,2012-10-10 06:35:00
1:55 AM,32.0,30.2,93,29.99,10.0,West,5.8,-,N/A,,Overcast,260,2012-10-10 06:55:00
2:15 AM,30.2,28.4,93,29.99,10.0,West,6.9,-,N/A,,Overcast,270,2012-10-10 07:15:00
2:35 AM,30.2,28.4,93,29.98,10.0,West,6.9,-,N/A,,Mostly Cloudy,270,2012-10-10 07:35:00
2:55 AM,30.2,30.2,100,29.98,10.0,West,6.9,-,N/A,,Overcast,260,2012-10-10 07:55:00
3:15 AM,28.4,28.4,100,29.98,10.0,West,6.9,-,N/A,,Mostly Cloudy,260,2012-10-10 08:15:00
3:35 AM,28.4,28.4,100,29.98,10.0,West,6.9,-,N/A,,Partly Cloudy,270,2012-10-10 08:35:00
3:55 AM,26.6,26.6,100,29.98,10.0,West,6.9,-,N/A,,Clear,260,2012-10-10 08:55:00
4:15 AM,26.6,26.6,100,29.98,10.0,West,6.9,-,N/A,,Clear,270,2012-10-10 09:15:00
4:35 AM,26.6,26.6,100,29.98,10.0,West,6.9,-,N/A,,Clear,270,2012-10-10 09:35:00
4:55 AM,26.6,26.6,100,29.97,10.0,West,6.9,-,N/A,,Clear,260,2012-10-10 09:55:00
5:15 AM,26.6,26.6,100,29.97,10.0,West,6.9,-,N/A,,Clear,260,2012-10-10 10:15:00
5:35 AM,24.8,24.8,100,29.97,10.0,West,6.9,-,N/A,,Clear,260,2012-10-10 10:35:00
5:55 AM,24.8,24.8,100,29.97,10.0,West,5.8,-,N/A,,Clear,260,2012-10-10 10:55:00
6:15 AM,24.8,24.8,100,29.98,10.0,WSW,5.8,-,N/A,,Clear,250,2012-10-10 11:15:00
6:35 AM,24.8,23.0,93,29.97,10.0,WSW,3.5,-,N/A,,Clear,250,2012-10-10 11:35:00
6:55 AM,24.8,23.0,93,29.97,10.0,WSW,4.6,-,N/A,,Clear,250,2012-10-10 11:55:00
7:15 AM,23.0,23.0,100,29.96,10.0,WSW,3.5,-,N/A,,Clear,250,2012-10-10 12:15:00
7:35 AM,23.0,23.0,100,29.95,10.0,SW,3.5,-,N/A,,Clear,230,2012-10-10 12:35:00
7:55 AM,23.0,23.0,100,29.96,10.0,SW,4.6,-,N/A,,Clear,230,2012-10-10 12:55:00
8:35 AM,26.6,26.6,100,29.96,10.0,Calm,Calm,-,N/A,,Clear,0,2012-10-10 13:35:00
8:55 AM,26.6,26.6,100,29.96,10.0,Calm,Calm,-,N/A,,Mostly Cloudy,0,2012-10-10 13:55:00
9:15 AM,28.4,26.6,93,29.96,10.0,WSW,3.5,-,N/A,,Overcast,250,2012-10-10 14:15:00
9:35 AM,28.4,28.4,100,29.96,10.0,West,3.5,-,N/A,,Overcast,260,2012-10-10 14:35:00
9:55 AM,32.0,30.2,93,29.96,10.0,WSW,3.5,-,N/A,,Overcast,250,2012-10-10 14:55:00
10:15 AM,32.0,32.0,100,29.96,10.0,Calm,Calm,-,N/A,,Overcast,0,2012-10-10 15:15:00
10:35 AM,32.0,32.0,100,29.96,10.0,Calm,Calm,-,N/A,,Overcast,0,2012-10-10 15:35:00
10:55 AM,32.0,32.0,100,29.96,10.0,West,5.8,-,N/A,,Mostly Cloudy,260,2012-10-10 15:55:00
11:15 AM,33.8,32.0,93,29.96,10.0,WSW,5.8,-,N/A,,Mostly Cloudy,250,2012-10-10 16:15:00
11:55 AM,35.6,32.0,87,29.95,10.0,WSW,5.8,-,N/A,,Mostly Cloudy,250,2012-10-10 16:55:00
12:15 PM,37.4,32.0,81,29.95,10.0,West,5.8,-,N/A,,Mostly Cloudy,270,2012-10-10 17:15:00
12:35 PM,37.4,30.2,75,29.94,10.0,WSW,6.9,-,N/A,,Mostly Cloudy,250,2012-10-10 17:35:00
12:55 PM,37.4,32.0,81,29.93,10.0,West,8.1,-,N/A,,Overcast,260,2012-10-10 17:55:00
1:15 PM,37.4,32.0,81,29.94,10.0,West,8.1,-,N/A,,Overcast,280,2012-10-10 18:15:00
1:35 PM,37.4,33.8,87,29.93,10.0,WNW,6.9,-,N/A,,Overcast,290,2012-10-10 18:35:00
1:55 PM,37.4,35.6,93,29.93,10.0,WSW,9.2,-,N/A,,Overcast,250,2012-10-10 18:55:00
2:15 PM,37.4,35.6,93,29.91,10.0,WSW,6.9,-,N/A,,Overcast,240,2012-10-10 19:15:00
2:35 PM,37.4,35.6,93,29.89,10.0,SSW,6.9,-,N/A,,Overcast,210,2012-10-10 19:35:00
2:55 PM,37.4,33.8,87,29.89,10.0,SW,6.9,-,N/A,,Overcast,220,2012-10-10 19:55:00
3:15 PM,37.4,33.8,87,29.90,10.0,SSW,4.6,-,N/A,,Overcast,210,2012-10-10 20:15:00
3:35 PM,37.4,35.6,93,29.90,10.0,South,3.5,-,N/A,,Overcast,190,2012-10-10 20:35:00
3:55 PM,37.4,35.6,93,29.90,7.0,Calm,Calm,-,N/A,,Mostly Cloudy,0,2012-10-10 20:55:00
4:15 PM,37.4,35.6,93,29.90,4.0,South,3.5,-,N/A,,Scattered Clouds,190,2012-10-10 21:15:00
4:35 PM,37.4,35.6,93,29.89,5.0,Calm,Calm,-,N/A,,Scattered Clouds,0,2012-10-10 21:35:00
4:55 PM,37.4,35.6,93,29.89,5.0,Calm,Calm,-,N/A,,Mostly Cloudy,0,2012-10-10 21:55:00
5:15 PM,37.4,35.6,93,29.89,10.0,Calm,Calm,-,N/A,,Mostly Cloudy,0,2012-10-10 22:15:00
5:35 PM,37.4,35.6,93,29.89,10.0,Calm,Calm,-,N/A,,Overcast,0,2012-10-10 22:35:00
5:55 PM,37.4,35.6,93,29.90,10.0,Calm,Calm,-,N/A,,Overcast,0,2012-10-10 22:55:00
6:15 PM,37.4,35.6,93,29.90,10.0,Calm,Calm,-,N/A,,Overcast,0,2012-10-10 23:15:00
6:35 PM,37.4,35.6,93,29.91,10.0,Calm,Calm,-,N/A,,Overcast,0,2012-10-10 23:35:00
6:55 PM,37.4,35.6,93,29.91,10.0,Calm,Calm,-,N/A,,Overcast,0,2012-10-10 23:55:00
7:15 PM,37.4,35.6,93,29.91,10.0,Calm,Calm,-,N/A,,Overcast,0,2012-10-11 00:15:00
7:35 PM,37.4,35.6,93,29.92,10.0,Calm,Calm,-,N/A,,Overcast,0,2012-10-11 00:35:00
7:55 PM,35.6,35.6,100,29.93,10.0,Calm,Calm,-,N/A,,Overcast,0,2012-10-11 00:55:00
8:15 PM,35.6,35.6,100,29.94,10.0,WNW,4.6,-,N/A,,Overcast,290,2012-10-11 01:15:00
8:35 PM,35.6,35.6,100,29.94,10.0,WNW,3.5,-,N/A,,Overcast,290,2012-10-11 01:35:00
8:55 PM,33.8,33.8,100,29.95,10.0,WNW,4.6,-,N/A,,Scattered Clouds,300,2012-10-11 01:55:00
9:15 PM,32.0,32.0,100,29.95,10.0,WNW,5.8,-,N/A,,Scattered Clouds,290,2012-10-11 02:15:00
9:35 PM,32.0,32.0,100,29.96,10.0,WNW,5.8,-,N/A,,Overcast,300,2012-10-11 02:35:00
9:55 PM,33.8,33.8,100,29.96,10.0,NW,6.9,-,N/A,,Overcast,310,2012-10-11 02:55:00
10:15 PM,35.6,35.6,100,29.97,10.0,NW,6.9,-,N/A,,Overcast,320,2012-10-11 03:15:00
10:35 PM,35.6,35.6,100,29.97,10.0,NNW,6.9,-,N/A,,Overcast,330,2012-10-11 03:35:00
10:55 PM,35.6,35.6,100,29.98,10.0,NNW,9.2,-,N/A,,Overcast,330,2012-10-11 03:55:00
11:15 PM,35.6,35.6,100,29.99,10.0,NNW,9.2,-,N/A,,Overcast,340,2012-10-11 04:15:00
11:35 PM,35.6,35.6,100,30.00,10.0,NNW,11.5,-,N/A,,Overcast,340,2012-10-11 04:35:00
11:55 PM,35.6,32.0,87,30.00,10.0,NNW,9.2,-,N/A,,Overcast,340,2012-10-11 04:55:00